Regional Weather Roundup
Issued by NWS Wakefield, VA

Home | Current Version | Previous Version | Graphics & Text | Print | Product List | Glossary On
Versions: 1 2 3 4 5 6 7 8 9 10 11 12 13 14 15 16 17 18 19 20 21 22 23 24 25 26 27 28
000
ASUS41 KAKQ 222215
RWRAKQ

REGIONAL WEATHER ROUNDUP
NATIONAL WEATHER SERVICE WAKEFIELD VA
600 PM EDT FRI JUL 22 2016

Note: "fair" indicates few or no clouds below 12,000 feet with no
significant weather and/or obstructions to visibility. * = Denotes
station may not report precipitation (e.g., rain,snow,etc.),
thunder or fog.

VAZ042-051-052>054-056-222300-
NORTHERN VIRGINIA

CITY           SKY/WX    TMP DP  RH WIND       PRES   REMARKS
WASH NATIONAL  CLOUDY    91  72  53 S16       29.90F HX  98
DULLES         PTSUNNY   91  68  46 SW8       29.91F HX  95
FORT BELVOIR   FAIR      91  71  51 VRB6      29.90F HX  97
QUANTICO       FAIR      90  74  59 S13       29.92F HX  99
FREDERICKSBRG*   N/A     92  70  48 SW9       29.92F HX  98
STAFFORD*      FAIR      91  68  46 SW5       29.97F HX  95
WARRENTON      FAIR      92  67  42 SW6       29.92F HX  95
CULPEPER*      FAIR      89  74  60 SW6       29.94F HX  98
MANASSAS*      SUNNY     91  72  52 SW8       29.91F HX  98
LEESBURG*      FAIR      93  72  49 W7        29.93S HX 100
WINCHESTER     FAIR      90  68  48 W7        29.95S
FRONT ROYAL*   FAIR      88  70  55 W5        29.94S
LURAY*         FAIR      90  70  51 SW8       29.97S HX  95
$$

VAZ048-049-060>072-079>083-222300-
CENTRAL AND SOUTH CENTRAL VIRGINIA

CITY           SKY/WX    TMP DP  RH WIND       PRES   REMARKS
RICHMOND       FAIR      91  69  48 SW7       29.94F HX  96
CHESTERFIELD*  FAIR      91  64  40 W5        29.96F
PETERSBURG*    FAIR      93  71  49 SW5       29.96F HX  99
HANOVER        FAIR      91  67  44 W7        29.96F
TAPPAHANNOCK*  FAIR      92  68  45 S6        29.94F HX  96
QUINTON*       FAIR      90  74  58 SW3       29.94F HX 100
CHARLOTTSVILLE FAIR      89  68  49 S6        29.96F
GORDONSVILLE*  FAIR      91  72  54 S6        29.95F HX  98
ORANGE*          N/A     91  68  46 CALM      29.97F HX  95
LOUISA*        FAIR      91  73  55 CALM      29.95F HX 100
BUMPASS*       FAIR      89  71  55 CALM      29.95F HX  95
FARMVILLE*     NOT AVBL
CREWE*         FAIR      91  72  53 SW5       29.96F HX  97
FORT PICKETT*  FAIR      90  71  53 S8        29.97F HX  96
CHASE CITY*    FAIR      91  70  49 CALM      29.98F HX  96
CLARKSVILLE*   FAIR      90  73  58 CALM      29.97F HX  98
SOUTH HILL*    FAIR      91  71  52 S6        30.03F HX  96
LAWRENCEVILLE* FAIR      91  75  59 S6        29.97F HX 101
EMPORIA*       FAIR      90  73  58 S6        29.98F HX  98
$$

VAZ088>098-222300-
SOUTHEAST VIRGINIA

CITY           SKY/WX    TMP DP  RH WIND       PRES   REMARKS
NORFOLK        FAIR      91  70  49 SW10      29.95F HX  96
VIRGINIA BEACH PTSUNNY   94  71  47 SW16G23   29.95F HX 101
NORFOLK NAVAL  FAIR      91  73  55 SW12      29.97F HX  99
WEST POINT*    FAIR      91  71  53 SW7       29.95F HX  97
SALUDA*        FAIR      90  76  64 CALM      29.94F HX 102
NEWPORT NEWS   FAIR      90  75  61 SW13      29.95F HX 100
LANGLEY AFB    FAIR      90  75  59 S12       29.94F HX 100
FORT EUSTIS    FAIR      91  76  61 SW8       29.93F HX 103
WILLIAMSBURG*  FAIR      93  77  59 SW8       29.95F HX 107
HR EXEC AP*    FAIR      90  75  62 SW10      29.98F HX 100
FRANKLIN*      FAIR      89  74  60 SW7       29.97F HX  97
US460-WAKEFLD  FAIR      90  74  59 S7        29.96F HX  99
$$

VAZ020-022-025-037-045-222300-
WEST CENTRAL AND SOUTHWEST VIRGINIA

CITY           SKY/WX    TMP DP  RH WIND       PRES   REMARKS
STAUNTON*      FAIR      81  72  74 E7        30.03S
WAYNESBORO*    FAIR      85  68  55 W5        30.02F
HOT SPRINGS VA FAIR      81  64  57 W7        30.17
LYNCHBURG      FAIR      90  66  45 CALM      30.01F
DANVILLE       FAIR      92  67  43 VRB3      29.98F HX  95
SOUTH BOSTON*  FAIR      92  69  46 SW3       29.97F HX  97
MARTINSVILLE   PTSUNNY   91  69  48 S3        30.02F HX  95
ROANOKE        FAIR      87  66  49 NW10      30.04F
BLACKSBURG     FAIR      85  66  51 NW8       30.13S
DUBLIN*        FAIR      86  66  50 N7        30.11S
MARION*        FAIR      84  66  53 N3        30.15F
HILLSVILLE*    FAIR      82  66  58 CALM      30.12S
RICHLANDS*     FAIR      83  67  58 N3        30.14F
WISE*          FAIR      86  52  30 NE8       30.15F
ABINGDON*      FAIR      89  62  40 CALM      30.09F
$$

MDZ021>025-VAZ099-100-222300-
SOUTHERN MARYLAND AND THE DELMARVA PENINSULA

CITY           SKY/WX    TMP DP  RH WIND       PRES   REMARKS
PATUXENT RIVER MOSUNNY   90  68  48 SW12      29.92F
BAY BRIDGE APT PTSUNNY   90  72  55 S8        29.89F HX  96
LEONARDTOWN    SUNNY     90  66  45 SW8       29.94F
DOVER          MOSUNNY   89  73  59 SW12      29.88F HX  97
GEORGETOWN     MOSUNNY   90  73  57 SW14      29.92F HX  98
EASTON         MOSUNNY   91  75  59 SW14      29.94F HX 102
CAMBRIDGE      MOSUNNY   88  70  55 S6        29.92F
SALISBURY      SUNNY     86  75  69 SW12      29.93F HX  95
OCEAN CITY     SUNNY     86  74  67 SW16G23   29.93F
WALLOPS ISLAND FAIR      83  75  77 S17       29.95F
ACCOMACK*      FAIR      88  75  66 CALM      29.94F HX  97
$$

NCZ012>017-030>032-222300-
NORTH CENTRAL AND EASTERN NORTH CAROLINA

CITY           SKY/WX    TMP DP  RH WIND       PRES   REMARKS
ROANOKE RAPIDS FAIR      90  73  58 SW8       29.98F HX  98
RALEIGH        MOSUNNY   91  74  57 S14       29.99F HX 100
ELIZABETH CITY SUNNY     89  71  55 S10       29.99F HX  95
AHOSKIE*       SUNNY     87  74  66 S6        29.98F HX  95
EDENTON*       SUNNY     91  67  45 SW9       30.00S
CURRITUCK*     SUNNY     90  70  50 S6        29.99F HX  95
KILL DEVIL HLS SUNNY     89  71  54 S7        30.00F
MANTEO           N/A     87  72  61 SW16      30.01F
CAPE HATTERAS  SUNNY     85  70  60 SW9       30.03F
TARBORO*       FAIR      91  74  57 SW5       29.99F HX  99
GOLDSBORO      MOSUNNY   92  71  50 SW10      29.98F HX  98
WASHINGTON     SUNNY     88  70  55 S8        29.99F
GREENVILLE     SUNNY     90  72  55 SW8       30.01F HX  96
NEW BERN       MOSUNNY   88  69  53 S9        30.02F
WILMINGTON     SUNNY     87  69  54 SE7       30.02F
$$

VAZ048-222300-
ELSEWHERE

CITY           SKY/WX    TMP DP  RH WIND       PRES   REMARKS
HARRISBURG PA  CLOUDY    90  70  51 W7        29.87F HX  95
BALTIMORE      PTSUNNY   91  68  46 S7        29.89F HX  95
ANNAPOLIS      MOSUNNY   91  71  51 S10       29.89F HX  97
ANDREWS AFB    FAIR      88  71  56 S13       29.90F
PHILADELPHIA   PTSUNNY   91  70  49 SW18      29.86F HX  96
GREENSBORO     MOSUNNY   91  67  44 W8        30.00F
ROCKY MOUNT    SUNNY     90  74  59 S9        29.99F HX  99
$$

VAZ100-222300-
MARINE

STATION/POSITION TIME  TEMP    WIND        PRES    WAVE   SWELL
                       AIR SEA DIR/SP/G            HT/PER HT/PER
                 (UTC) (F)     (DEG/KT/KT) (MB)    (FT/S) (FT/S)
BRANDYWINE LGT   2100   85     240/ 18/ 20   N/A
CAPE MAY NJ      2100   83 76  240/  9/ 11 1012.8F
LEWES DE         2100   90 72  230/  8/ 14 1013.2F
15NM E FENWICK I 2150   78                   N/A
OCEAN-CITY-INLET 2100   78 78  210/ 14/ 17 1014.8F
WACHAPREAGUE VA  2100   87 88  200/ 13/ 17 1014.5F
THOMAS POINT MD  2200   86 84  180/ 12/ 13 1013.6F
GOOSES REEF MD   2100   89 85  220/  8/ 10 1014.6F   1
COVE POINT MD    2100   91     270/  9/ 11 1014.2F
SOLOMONS ISLAND  2100   90 83  240/ 10/ 13   N/A
BISHOPS HEAD MD  2100   87 87  190/ 15/ 17 1014.1F
PINEY POINT MD   2100          350/  7/  8   N/A
POTOMAC MD       2100   87 85  290/  4/  4 1013.0F   1/ 3
CAMBRIDGE MD     2100   91 86  200/  8/ 13 1012.8F
LEWISETTA VA     2100   88 83   20/  5/  7 1013.8F
RAPPAHANNOCK LGT 2100          180/ 13/ 14 1015.1F
STINGRAY PT      2100   89 85  170/ 10/ 12 1014.9F   1
YORK RVR RNG VA  2100   89     240/ 13/ 15 1014.1F
YORKTOWN VA      2100   89 83  230/  9/ 11 1014.3F
JAMESTOWN VA     2100   89 87  210/  6/ 12   N/A     0
DOMINION TERM VA 2100   88     230/ 13/ 16 1015.0F
KIPTOPEKE VA     2100      83  190/  4/  5   N/A
CHES BAY BRIDGE  2100   88 81  190/ 13/ 17 1014.8F
CAPE HENRY VA    2100   89     190/  7/ 14   N/A
WILLOUBY STN VA  2100   88     220/ 14/ 15   N/A
CAPE HENRY BUOY  2112      82                N/A     3/ 8
1ST LANDING BUOY 2100   87 80  210/ 10/ 14 1014.7F
CAPE CHARLES BUO 2056      73                N/A     3/ 9
64NM E OF VA BCH 2150   81 82  200/ 16/ 19 1015.5F   3/ 8   2/ 8
DUCK PIER NC     2100   88 79  210/ 13/ 16 1015.4F
44100 DUCK FRF   2105      81                N/A     3/ 8
44056 DUCK FRF   2111      82                N/A     2/ 9
OREGON INLET NC  2100   84 83  190/ 13/ 17 1016.7F
HATTERAS NC      2100   86 83  200/  7/ 10 1017.0F
DIAMOND SHLS NC  2150   84 86  210/  8/ 10 1017.0F   3/ 9   3/ 9
CAPE LOOKOUT NC  2200   84     190/  8/ 12 1016.3F
$$




USA.gov is the U.S. government's official web portal to all federal, state and local government web resources and services.